User: anonymous   Login
Location: Gajan
(43.0218°N, 1.1244°E)
Time: 02:43:13
(UTC+00:00)
Language:

N. Korean satellite - Orbit

View from above orbital plane
View from above orbital plane
View from above satellite
View from above satellite

Ground track
Ground track

The orbit data is extracted from the following two-line orbital elements,

1 39026U 12072A   21333.54153859  .00005247  00000-0  17155-3 0  9994
2 39026  97.2569 322.6310 0035173 152.2318 208.0812 15.31539753498282
Epoch (UTC): 29 November 2021 12:59:48
Eccentricity: 0.0035173
inclination: 97.2569°
perigee height: 447 km
apogee height: 495 km
right ascension of ascending node: 322.6310°
argument of perigee: 152.2318°
revolutions per day: 15.31539753
mean anomaly at epoch: 208.0812°
orbit number at epoch: 49828

The dashed part of the orbit path shows where the satellite is in the earth's shadow,  

DLR